N655CJ TJSJ-MDJB

Flight info

Callsign N655CJ
Flight time 0h 41m
Altitude 20000
Route SJU RTE2 BQN B520 ANTEX UL577 CDO DCT DHG
Aircraft C750/M-SBDE3FGHRWXY/S

Departure

Time 2026-04-29 01:45
Airport Luis Munoz Marin International Airport (TJSJ)

Arrival

Time 2026-04-29 02:26
Airport La Isabela International Airport (MDJB)
Time Latitude Longitude Altitude Speed Heading
2026-04-29 01:26 18.43947 -66.00184 13 ft 0 kts 249°
2026-04-29 01:30 18.43947 -66.00185 13 ft 0 kts 249°
2026-04-29 01:31 18.43946 -66.00185 13 ft 0 kts 249°
2026-04-29 01:32 18.43944 -66.00193 13 ft 3 kts 257°
2026-04-29 01:33 18.43957 -66.00222 13 ft 6 kts 307°
2026-04-29 01:33 18.43990 -66.00269 13 ft 9 kts 307°
2026-04-29 01:33 18.44000 -66.00302 13 ft 6 kts 279°
2026-04-29 01:33 18.44029 -66.00347 13 ft 10 kts 336°
2026-04-29 01:34 18.44083 -66.00370 13 ft 7 kts 338°
2026-04-29 01:34 18.44136 -66.00393 13 ft 10 kts 337°
2026-04-29 01:34 18.44167 -66.00438 13 ft 9 kts 257°
2026-04-29 01:34 18.44142 -66.00503 13 ft 10 kts 247°
2026-04-29 01:35 18.44109 -66.00586 13 ft 14 kts 247°
2026-04-29 01:35 18.44066 -66.00693 13 ft 15 kts 248°
2026-04-29 01:35 18.44028 -66.00791 13 ft 16 kts 248°
2026-04-29 01:35 18.43988 -66.00895 13 ft 9 kts 248°
2026-04-29 01:36 18.43958 -66.00971 13 ft 13 kts 248°
2026-04-29 01:36 18.43918 -66.01076 13 ft 17 kts 248°
2026-04-29 01:36 18.43885 -66.01161 13 ft 11 kts 248°
2026-04-29 01:36 18.43852 -66.01246 13 ft 15 kts 248°
2026-04-29 01:37 18.43814 -66.01341 13 ft 11 kts 248°
2026-04-29 01:37 18.43794 -66.01401 13 ft 10 kts 260°
2026-04-29 01:37 18.43817 -66.01440 13 ft 6 kts 334°
2026-04-29 01:37 18.43826 -66.01445 13 ft 0 kts 334°
2026-04-29 01:38 18.43827 -66.01445 13 ft 0 kts 334°
2026-04-29 01:39 18.43833 -66.01448 13 ft 3 kts 334°
2026-04-29 01:39 18.43865 -66.01461 13 ft 7 kts
2026-04-29 01:39 18.43895 -66.01435 13 ft 0 kts 67°
2026-04-29 01:40 18.43894 -66.01443 13 ft 0 kts 67°
2026-04-29 01:44 18.43897 -66.01437 13 ft 6 kts 67°
2026-04-29 01:44 18.44009 -66.01153 13 ft 90 kts 67°
2026-04-29 01:45 18.44384 -66.00240 130 ft 192 kts 66°
2026-04-29 01:45 18.44980 -65.98798 1403 ft 247 kts 66°
2026-04-29 01:45 18.45659 -65.97113 3858 ft 258 kts 68°
2026-04-29 01:45 18.46447 -65.95505 6202 ft 254 kts 54°
2026-04-29 01:46 18.47846 -65.94395 7501 ft 266 kts 18°
2026-04-29 01:46 18.49551 -65.94507 7991 ft 269 kts 332°
2026-04-29 01:46 18.50658 -65.95988 8442 ft 261 kts 285°
2026-04-29 01:46 18.50524 -65.97774 8807 ft 259 kts 249°
2026-04-29 01:47 18.49825 -65.99410 9244 ft 253 kts 245°
2026-04-29 01:47 18.49106 -66.01016 9747 ft 247 kts 247°
2026-04-29 01:47 18.48415 -66.02754 9958 ft 257 kts 249°
2026-04-29 01:47 18.47760 -66.04516 9992 ft 260 kts 250°
2026-04-29 01:48 18.47136 -66.06328 9998 ft 259 kts 252°
2026-04-29 01:48 18.46634 -66.08142 9999 ft 257 kts 256°
2026-04-29 01:48 18.46271 -66.09945 9998 ft 254 kts 260°
2026-04-29 01:48 18.46022 -66.11779 9997 ft 251 kts 264°
2026-04-29 01:49 18.45870 -66.13597 9997 ft 249 kts 266°
2026-04-29 01:49 18.45790 -66.15415 9997 ft 247 kts 269°
2026-04-29 01:49 18.45764 -66.17193 10250 ft 235 kts 270°
2026-04-29 01:49 18.45772 -66.18887 10797 ft 237 kts 271°
2026-04-29 01:50 18.45807 -66.20813 11429 ft 292 kts 271°
2026-04-29 01:50 18.45877 -66.23154 12095 ft 347 kts 272°
2026-04-29 01:50 18.45975 -66.25747 12735 ft 358 kts 272°
2026-04-29 01:50 18.46089 -66.28422 13370 ft 372 kts 272°
2026-04-29 01:51 18.46213 -66.31173 14001 ft 379 kts 273°
2026-04-29 01:51 18.46345 -66.33970 14631 ft 383 kts 273°
2026-04-29 01:51 18.46480 -66.36786 15259 ft 386 kts 273°
2026-04-29 01:51 18.46616 -66.39619 15886 ft 387 kts 273°
2026-04-29 01:52 18.46753 -66.42456 16513 ft 388 kts 273°
2026-04-29 01:52 18.46889 -66.45287 17137 ft 388 kts 272°
2026-04-29 01:52 18.47025 -66.48134 17764 ft 388 kts 272°
2026-04-29 01:52 18.47159 -66.50934 18382 ft 387 kts 273°
2026-04-29 01:53 18.47292 -66.53761 19007 ft 386 kts 273°
2026-04-29 01:53 18.47425 -66.56590 19533 ft 393 kts 272°
2026-04-29 01:53 18.47564 -66.59603 19846 ft 430 kts 272°
2026-04-29 01:53 18.47707 -66.62818 20001 ft 442 kts 272°
2026-04-29 01:54 18.47851 -66.66051 20076 ft 441 kts 272°
2026-04-29 01:54 18.47992 -66.69281 20079 ft 440 kts 272°
2026-04-29 01:54 18.48130 -66.72448 20074 ft 437 kts 272°
2026-04-29 01:54 18.48269 -66.75678 20073 ft 438 kts 272°
2026-04-29 01:55 18.48406 -66.78880 20074 ft 439 kts 272°
2026-04-29 01:55 18.48545 -66.82114 20077 ft 440 kts 272°
2026-04-29 01:55 18.48686 -66.85297 20079 ft 442 kts 272°
2026-04-29 01:55 18.48831 -66.88534 20079 ft 442 kts 272°
2026-04-29 01:56 18.48978 -66.91771 20079 ft 443 kts 272°
2026-04-29 01:56 18.49126 -66.95023 20079 ft 443 kts 272°
2026-04-29 01:56 18.49273 -66.98267 20079 ft 443 kts 272°
2026-04-29 01:56 18.49422 -67.01523 20079 ft 444 kts 272°
2026-04-29 01:57 18.49569 -67.04772 20080 ft 444 kts 272°
2026-04-29 01:57 18.49697 -67.08031 20081 ft 444 kts 271°
2026-04-29 01:57 18.49753 -67.11247 20082 ft 444 kts 270°
2026-04-29 01:57 18.49759 -67.14517 20081 ft 444 kts 269°
2026-04-29 01:58 18.49732 -67.17747 20081 ft 444 kts 269°
2026-04-29 01:58 18.49686 -67.21006 20081 ft 444 kts 269°
2026-04-29 01:58 18.49627 -67.24266 20081 ft 444 kts 268°
2026-04-29 01:58 18.49561 -67.27520 20080 ft 444 kts 268°
2026-04-29 01:59 18.49492 -67.30782 20079 ft 444 kts 268°
2026-04-29 01:59 18.49420 -67.34028 20078 ft 444 kts 268°
2026-04-29 01:59 18.49348 -67.37289 20078 ft 444 kts 268°
2026-04-29 01:59 18.49276 -67.40532 20078 ft 444 kts 268°
2026-04-29 02:00 18.49203 -67.43786 20078 ft 444 kts 268°
2026-04-29 02:00 18.49131 -67.47038 20076 ft 444 kts 268°
2026-04-29 02:00 18.49059 -67.50300 20073 ft 444 kts 268°
2026-04-29 02:00 18.48987 -67.53555 20062 ft 445 kts 268°
2026-04-29 02:01 18.48914 -67.56814 20059 ft 445 kts 268°
2026-04-29 02:01 18.48843 -67.60031 20058 ft 445 kts 268°
2026-04-29 02:01 18.48771 -67.63296 20058 ft 445 kts 268°
2026-04-29 02:01 18.48697 -67.66576 20058 ft 446 kts 268°
2026-04-29 02:02 18.48624 -67.69851 20058 ft 446 kts 268°
2026-04-29 02:02 18.48551 -67.73094 20058 ft 446 kts 268°
2026-04-29 02:02 18.48477 -67.76365 20057 ft 446 kts 268°
2026-04-29 02:02 18.48403 -67.79636 20057 ft 446 kts 268°
2026-04-29 02:03 18.48328 -67.82906 20057 ft 446 kts 268°
2026-04-29 02:03 18.48252 -67.86173 20057 ft 446 kts 268°
2026-04-29 02:03 18.48176 -67.89439 20057 ft 446 kts 268°
2026-04-29 02:03 18.48100 -67.92707 20057 ft 446 kts 268°
2026-04-29 02:04 18.48022 -67.95979 20057 ft 446 kts 268°
2026-04-29 02:04 18.47946 -67.99243 20055 ft 446 kts 268°
2026-04-29 02:04 18.47871 -68.02478 20055 ft 446 kts 268°
2026-04-29 02:04 18.47796 -68.05753 20054 ft 446 kts 268°
2026-04-29 02:05 18.47720 -68.09027 20054 ft 446 kts 268°
2026-04-29 02:05 18.47645 -68.12267 20055 ft 446 kts 268°
2026-04-29 02:05 18.47569 -68.15549 20055 ft 446 kts 268°
2026-04-29 02:05 18.47492 -68.18822 20054 ft 446 kts 268°
2026-04-29 02:06 18.47415 -68.22101 20054 ft 446 kts 268°
2026-04-29 02:06 18.47337 -68.25365 20053 ft 446 kts 268°
2026-04-29 02:06 18.47260 -68.28582 20053 ft 446 kts 268°
2026-04-29 02:06 18.47180 -68.31897 20053 ft 446 kts 268°
2026-04-29 02:07 18.47101 -68.35141 20053 ft 446 kts 268°
2026-04-29 02:07 18.47020 -68.38419 20054 ft 446 kts 268°
2026-04-29 02:07 18.46939 -68.41699 20054 ft 446 kts 268°
2026-04-29 02:07 18.46858 -68.44932 20056 ft 446 kts 268°
2026-04-29 02:08 18.46776 -68.48211 20058 ft 446 kts 268°
2026-04-29 02:08 18.46693 -68.51477 20059 ft 446 kts 268°
2026-04-29 02:08 18.46610 -68.54753 20059 ft 446 kts 268°
2026-04-29 02:08 18.46526 -68.58025 20060 ft 446 kts 268°
2026-04-29 02:09 18.46442 -68.61293 20061 ft 446 kts 268°
2026-04-29 02:09 18.46358 -68.64537 20062 ft 446 kts 268°
2026-04-29 02:09 18.46272 -68.67817 20064 ft 446 kts 268°
2026-04-29 02:09 18.46186 -68.71079 20071 ft 446 kts 268°
2026-04-29 02:10 18.46100 -68.74309 20074 ft 446 kts 268°
2026-04-29 02:10 18.46012 -68.77600 20074 ft 446 kts 268°
2026-04-29 02:10 18.45925 -68.80858 20075 ft 446 kts 268°
2026-04-29 02:10 18.45837 -68.84127 20076 ft 446 kts 268°
2026-04-29 02:11 18.45748 -68.87395 20077 ft 446 kts 268°
2026-04-29 02:11 18.45659 -68.90660 20076 ft 446 kts 268°
2026-04-29 02:11 18.45569 -68.93924 20078 ft 446 kts 268°
2026-04-29 02:11 18.45479 -68.97170 20078 ft 437 kts 268°
2026-04-29 02:12 18.45392 -69.00317 19719 ft 424 kts 268°
2026-04-29 02:12 18.45306 -69.03376 19125 ft 420 kts 268°
2026-04-29 02:12 18.45222 -69.06398 18488 ft 416 kts 268°
2026-04-29 02:12 18.45135 -69.09482 17825 ft 414 kts 268°
2026-04-29 02:13 18.45049 -69.12506 17135 ft 413 kts 267°
2026-04-29 02:13 18.44963 -69.15531 16433 ft 411 kts 268°
2026-04-29 02:13 18.44875 -69.18543 15732 ft 410 kts 268°
2026-04-29 02:13 18.44788 -69.21530 15035 ft 409 kts 268°
2026-04-29 02:14 18.44700 -69.24527 14333 ft 408 kts 268°
2026-04-29 02:14 18.44614 -69.27478 13639 ft 397 kts 268°
2026-04-29 02:14 18.44529 -69.30342 12939 ft 387 kts 268°
2026-04-29 02:14 18.44447 -69.33144 12238 ft 379 kts 268°
2026-04-29 02:15 18.44366 -69.35867 11543 ft 372 kts 268°
2026-04-29 02:15 18.44285 -69.38559 10845 ft 366 kts 268°
2026-04-29 02:15 18.44204 -69.41228 10143 ft 361 kts 268°
2026-04-29 02:15 18.44124 -69.43862 9441 ft 357 kts 268°
2026-04-29 02:16 18.44045 -69.46477 8738 ft 354 kts 268°
2026-04-29 02:16 18.43966 -69.49069 8035 ft 351 kts 267°
2026-04-29 02:16 18.43888 -69.51597 7344 ft 349 kts 268°
2026-04-29 02:16 18.43810 -69.54125 6650 ft 348 kts 268°
2026-04-29 02:17 18.43731 -69.56662 5951 ft 346 kts 268°
2026-04-29 02:17 18.43652 -69.59189 5352 ft 342 kts 268°
2026-04-29 02:17 18.43575 -69.61647 4880 ft 336 kts 268°
2026-04-29 02:17 18.43657 -69.64094 4554 ft 326 kts 276°
2026-04-29 02:18 18.43978 -69.66014 4307 ft 319 kts 281°
2026-04-29 02:18 18.44247 -69.68301 4007 ft 312 kts 273°
2026-04-29 02:18 18.44303 -69.70571 3707 ft 307 kts 270°
2026-04-29 02:18 18.44281 -69.72796 3404 ft 300 kts 269°
2026-04-29 02:19 18.44230 -69.74961 3105 ft 297 kts 268°
2026-04-29 02:19 18.44169 -69.77151 2802 ft 295 kts 268°
2026-04-29 02:19 18.44108 -69.79306 2501 ft 294 kts 268°
2026-04-29 02:19 18.44046 -69.81431 2222 ft 292 kts 268°
2026-04-29 02:20 18.43983 -69.83539 2085 ft 285 kts 268°
2026-04-29 02:20 18.43920 -69.85593 2031 ft 274 kts 268°
2026-04-29 02:20 18.43862 -69.87554 2017 ft 259 kts 268°
2026-04-29 02:20 18.43668 -69.89380 2016 ft 246 kts 257°
2026-04-29 02:21 18.43235 -69.91077 2014 ft 230 kts 252°
2026-04-29 02:21 18.42770 -69.92629 2012 ft 216 kts 251°
2026-04-29 02:21 18.42313 -69.94094 2012 ft 203 kts 251°
2026-04-29 02:21 18.41881 -69.95473 2016 ft 195 kts 251°
2026-04-29 02:22 18.41460 -69.96814 2018 ft 190 kts 251°
2026-04-29 02:22 18.41196 -69.97656 2018 ft 187 kts 251°
2026-04-29 02:22 18.41096 -69.97981 2011 ft 187 kts 252°
2026-04-29 02:22 18.40957 -69.99336 1947 ft 184 kts 276°
2026-04-29 02:23 18.41441 -70.00535 1892 ft 177 kts 310°
2026-04-29 02:23 18.42853 -70.01325 1609 ft 179 kts 354°
2026-04-29 02:23 18.43681 -70.01307 1455 ft 179 kts 10°
2026-04-29 02:23 18.44881 -70.01016 1364 ft 171 kts 15°
2026-04-29 02:24 18.46016 -70.00729 1371 ft 167 kts 14°
2026-04-29 02:24 18.47131 -70.00447 1332 ft 162 kts 14°
2026-04-29 02:24 18.48211 -70.00157 1172 ft 163 kts 17°
2026-04-29 02:25 18.50284 -69.99414 1104 ft 159 kts 18°
2026-04-29 02:25 18.51360 -69.99165 1034 ft 159 kts
2026-04-29 02:25 18.52477 -69.99018 873 ft 165 kts
2026-04-29 02:25 18.53659 -69.98904 671 ft 171 kts
2026-04-29 02:26 18.54838 -69.98820 410 ft 169 kts
2026-04-29 02:26 18.55982 -69.98711 202 ft 165 kts
2026-04-29 02:26 18.57102 -69.98579 84 ft 155 kts
2026-04-29 02:26 18.57600 -69.98519 83 ft 31 kts
2026-04-29 02:27 18.57625 -69.98516 83 ft 1 kts
2026-04-29 02:27 18.57668 -69.98512 83 ft 13 kts
2026-04-29 02:27 18.57749 -69.98503 83 ft 12 kts
2026-04-29 02:27 18.57841 -69.98493 83 ft 14 kts
2026-04-29 02:28 18.57944 -69.98466 83 ft 14 kts 44°
2026-04-29 02:28 18.57956 -69.98398 83 ft 4 kts 95°
2026-04-29 02:28 18.57955 -69.98396 83 ft 0 kts 95°
2026-04-29 02:30 18.57954 -69.98377 83 ft 5 kts 95°
2026-04-29 02:30 18.57935 -69.98330 83 ft 8 kts 146°
2026-04-29 02:30 18.57865 -69.98319 83 ft 14 kts 186°
2026-04-29 02:30 18.57780 -69.98329 83 ft 10 kts 186°
2026-04-29 02:31 18.57711 -69.98337 83 ft 5 kts 186°
2026-04-29 02:31 18.57681 -69.98328 83 ft 5 kts 104°
2026-04-29 02:31 18.57663 -69.98290 83 ft 6 kts 180°
2026-04-29 02:31 18.57609 -69.98305 83 ft 11 kts 195°
2026-04-29 02:32 18.57568 -69.98305 83 ft 4 kts 141°
2026-04-29 02:32 18.57561 -69.98285 83 ft 2 kts 95°
2026-04-29 02:32 18.57560 -69.98278 83 ft 0 kts 93°
2026-04-29 02:33 18.57560 -69.98277 83 ft 0 kts 93°